Weather History for McConnell AFB, KS

Change the Weather History Date:

Sunday, August 11, 2013

  Actual Average Record
Temperature  
Mean Temperature 76 °F -  
Max Temperature 84 °F 86 °F 104 °F (2010)
Min Temperature 68 °F 66 °F 62 °F (2004)
Cooling Degree Days 11    
Growing Degree Days 26 (Base 50)    
Moisture  
Dew Point 71 °F    
Average Humidity 83    
Maximum Humidity 100    
Minimum Humidity 65    
Precipitation  
Precipitation 0.00 in - - ()
Sea Level Pressure  
Sea Level Pressure 30.07 in    
Wind  
Wind Speed 5 mph (ESE)    
Max Wind Speed 8 mph    
Max Gust Speed -    
Visibility 10 miles    
Events Rain    
Averages and records for this station are not official NWS values.
T = Trace of Precipitation, MM = Missing Value Source: NWS Daily Summary

Daily Weather History Graph

Daily Weather History Graph

Search for Another Location

Airport:

Trip Planner

Search our weather history database for the weather conditions in past years. The results will help you decide how hot, cold, wet, or windy it might be!

Date:

Astronomy

Aug. 11, 2013 Rise Set
Actual Time 6:41 AM CDT 8:26 PM CDT
Civil Twilight 6:13 AM CDT 8:54 PM CDT
Nautical Twilight 5:39 AM CDT 9:28 PM CDT
Astronomical Twilight 5:03 AM CDT 10:04 PM CDT
Moon 11:24 AM CDT (8/11) 10:49 PM CDT (8/11)
Length of Visible Light 14h 40m
Length of Day
13h 44m
Waxing Crescent, 22% of the Moon is Illuminated
Aug 11
Waxing Crescent
Aug 14
First Quarter
Aug 20
Full
Aug 28
Last Quarter
Sep 5
New

Hourly Weather History & Observations

Time (CDT) Temp. Heat Index Dew Point Humidity Pressure Visibility Wind Dir Wind Speed Gust Speed Precip Events Conditions
12:58 AM 71.8 °F - 69.4 °F 92% 30.13 in 10.0 mi ESE 4.6 mph - N/A   Clear
1:58 AM 71.4 °F - 69.3 °F 93% 30.12 in 10.0 mi East 3.5 mph - N/A   Clear
2:58 AM 71.2 °F - 68.9 °F 92% 30.12 in 10.0 mi East 3.5 mph - N/A   Clear
3:58 AM 69.4 °F - 69.4 °F 100% 30.10 in 10.0 mi NNE 4.6 mph - N/A   Clear
4:58 AM 69.4 °F - 69.3 °F 99% 30.08 in 10.0 mi ENE 8.1 mph - N/A   Clear
5:58 AM 68.2 °F - 68.2 °F 100% 30.09 in 10.0 mi East 4.6 mph - N/A   Clear
6:58 AM 68.0 °F - 68.0 °F 100% 30.09 in 10.0 mi East 5.8 mph - N/A   Clear
7:58 AM 69.6 °F - 69.6 °F 100% 30.10 in 10.0 mi East 5.8 mph - N/A   Clear
8:58 AM 72.7 °F - 71.8 °F 97% 30.12 in 10.0 mi ESE 4.6 mph - N/A   Partly Cloudy
9:58 AM 75.7 °F - 73.8 °F 94% 30.13 in 10.0 mi ESE 5.8 mph - N/A   Mostly Cloudy
10:58 AM 77.5 °F - 72.3 °F 84% 30.13 in 10.0 mi SE 6.9 mph - N/A   Partly Cloudy
11:58 AM 79.2 °F - 72.0 °F 78% 30.12 in 10.0 mi Variable 6.9 mph - N/A   Partly Cloudy
12:58 PM 81.9 °F 85.8 °F 70.5 °F 68% 30.09 in 10.0 mi SSW 4.6 mph - N/A   Clear
1:58 PM 82.9 °F 87.2 °F 70.5 °F 66% 30.08 in 10.0 mi ESE 4.6 mph - N/A   Scattered Clouds
2:58 PM 82.9 °F 87.5 °F 71.1 °F 67% 30.07 in 10.0 mi South 8.1 mph - N/A   Scattered Clouds
3:58 PM 82.9 °F 87.5 °F 70.9 °F 67% 30.05 in 10.0 mi South 6.9 mph - N/A   Partly Cloudy
4:58 PM 84.2 °F 89.6 °F 71.6 °F 66% 30.04 in 10.0 mi SSE 5.8 mph - N/A   Partly Cloudy
5:58 PM 83.3 °F 87.6 °F 70.5 °F 65% 30.02 in 10.0 mi SSE 5.8 mph - N/A   Partly Cloudy
6:58 PM 81.7 °F 86.7 °F 72.5 °F 74% 30.01 in 10.0 mi SSE 4.6 mph - N/A   Clear
7:58 PM 81.7 °F 86.5 °F 72.3 °F 73% 30.00 in 10.0 mi East 4.6 mph - N/A   Partly Cloudy
8:35 PM 80.6 °F 85.4 °F 73.4 °F 79% 30.04 in 10.0 mi East 3.5 mph - N/A Rain Light Rain
8:55 PM 80.6 °F 85.4 °F 73.4 °F 79% 30.04 in 10.0 mi East 6.9 mph - N/A   Clear
8:58 PM 81.0 °F 85.6 °F 72.7 °F 76% 30.01 in 10.0 mi East 6.9 mph - 0.00 in   Clear
9:58 PM 79.5 °F - 72.3 °F 79% 30.01 in 10.0 mi East 8.1 mph - N/A   Clear
10:58 PM 79.0 °F - 72.9 °F 81% 30.01 in 10.0 mi ESE 8.1 mph - N/A   Clear
11:58 PM 77.5 °F - 73.6 °F 88% 30.01 in 10.0 mi SE 8.1 mph - N/A   Clear